COSMOS 2456 (730)

Last updated on Tue Dec 16 2025 00:03:20 GMT+0000 (Coordinated Universal Time)

1 36111U 09070A 25348.41440904 -.00000057 00000+0 00000+0 0 9997 2 36111 64.9016 77.2804 0003117 298.1789 45.9889 2.13103612124485
UTC large
Height (km)
Speed (km/s)
/
Latitude / Longitude
Inclination (degrees)
Orbital Period (minutes)
Azimuth
Elevation
Range (km)
Doppler Factor

Next 0 passes for location: London (51.5072 / 0.1276)

Sorry there are no passes over London.